When you browse on this site, cookies collect data to enhance your experience and personalize the content and advertising you see.
Visit our Privacy Policy to learn more. By continuing to use the site, you agree to this use of cookies and data.
  • In Germany
  • List of Countries
  • For 7 days
  • Water Temperature
  • Satellite Maps
  • Weather Map
  • Weather Widgets
  • user-avatar
    Login

    Hourly Weather Barisal

    Today, 19 December, Wednesday

    Time Temperature Precipitation Wind Pressure Humidity
    00:00 +17°C° 0 mm 4 mps 760 mmHg 93%
    01:00 +17°C° 0 mm 4 mps 760 mmHg 93%
    02:00 +15°C° 0 mm 4 mps 760 mmHg 93%
    03:00 +15°C° 0 mm 4 mps 760 mmHg 93%
    04:00 +15°C° 0 mm 4 mps 760 mmHg 93%
    05:00 +16°C° 0 mm 3 mps 760 mmHg 94%
    06:00 +14°C° 0 mm 3 mps 761 mmHg 95%
    07:00 +16°C° 0 mm 3 mps 761 mmHg 89%
    08:00 +18°C° 0 mm 3 mps 762 mmHg 83%
    09:00 +19°C° 0 mm 4 mps 762 mmHg 77%
    10:00 +21°C° 0 mm 4 mps 762 mmHg 70%
    11:00 +22°C° 0 mm 4 mps 761 mmHg 63%
    12:00 +26°C° 0 mm 3 mps 762 mmHg 51%
    13:00 +26°C° 0 mm 3 mps 761 mmHg 51%
    14:00 +26°C° 0 mm 4 mps 761 mmHg 50%
    15:00 +27°C° 0 mm 4 mps 760 mmHg 49%
    16:00 +25°C° 0 mm 4 mps 760 mmHg 54%
    17:00 +24°C° 0 mm 3 mps 761 mmHg 59%
    18:00 +21°C° 0 mm 3 mps 761 mmHg 64%
    19:00 +21°C° 0 mm 3 mps 761 mmHg 66%
    20:00 +20°C° 0 mm 4 mps 761 mmHg 68%
    21:00 +19°C° 0 mm 4 mps 762 mmHg 70%
    22:00 +19°C° 0 mm 4 mps 762 mmHg 70%
    23:00 +19°C° 0 mm 4 mps 762 mmHg 71%

    Tomorrow, 20 December, Thursday

    Time Temperature Precipitation Wind Pressure Humidity
    00:00 +18°C° 0 mm 4 mps 762 mmHg 71%
    01:00 +18°C° 0 mm 4 mps 762 mmHg 72%
    02:00 +17°C° 0 mm 4 mps 761 mmHg 73%
    03:00 +17°C° 0 mm 3 mps 761 mmHg 74%
    04:00 +17°C° 0 mm 3 mps 761 mmHg 76%
    05:00 +16°C° 0 mm 3 mps 761 mmHg 77%
    06:00 +16°C° 0 mm 3 mps 761 mmHg 79%
    07:00 +18°C° 0 mm 4 mps 761 mmHg 73%
    08:00 +19°C° 0 mm 4 mps 762 mmHg 67%
    09:00 +21°C° 0 mm 4 mps 762 mmHg 62%
    10:00 +23°C° 0 mm 4 mps 762 mmHg 55%
    11:00 +25°C° 0 mm 4 mps 762 mmHg 49%
    12:00 +27°C° 0 mm 4 mps 761 mmHg 42%
    13:00 +27°C° 0 mm 4 mps 760 mmHg 41%
    14:00 +28°C° 0 mm 3 mps 760 mmHg 39%
    15:00 +28°C° 0 mm 3 mps 759 mmHg 37%
    16:00 +26°C° 0 mm 3 mps 759 mmHg 42%
    17:00 +25°C° 0 mm 3 mps 759 mmHg 47%
    18:00 +23°C° 0 mm 2 mps 759 mmHg 52%
    19:00 +21°C° 0 mm 2 mps 759 mmHg 54%
    20:00 +21°C° 0 mm 2 mps 760 mmHg 57%
    21:00 +20°C° 0 mm 3 mps 760 mmHg 59%
    22:00 +19°C° 0 mm 3 mps 760 mmHg 60%
    23:00 +19°C° 0 mm 3 mps 760 mmHg 62%

    Day after tomorrow, 21 December, Friday

    Time Temperature Precipitation Wind Pressure Humidity
    00:00 +19°C° 0 mm 3 mps 760 mmHg 63%
    01:00 +18°C° 0 mm 3 mps 760 mmHg 65%
    02:00 +18°C° 0 mm 3 mps 759 mmHg 66%
    03:00 +17°C° 0 mm 3 mps 759 mmHg 68%
    04:00 +17°C° 0 mm 3 mps 759 mmHg 70%
    05:00 +17°C° 0 mm 3 mps 759 mmHg 72%
    06:00 +17°C° 0 mm 3 mps 759 mmHg 73%
    07:00 +18°C° 0 mm 3 mps 760 mmHg 69%
    08:00 +20°C° 0 mm 3 mps 761 mmHg 65%
    09:00 +22°C° 0 mm 3 mps 761 mmHg 60%
    10:00 +24°C° 0 mm 3 mps 761 mmHg 54%
    11:00 +26°C° 0 mm 3 mps 761 mmHg 48%
    12:00 +27°C° 0 mm 3 mps 760 mmHg 42%
    13:00 +27°C° 0 mm 3 mps 759 mmHg 41%
    14:00 +28°C° 0 mm 3 mps 759 mmHg 39%
    15:00 +28°C° 0 mm 3 mps 758 mmHg 38%
    16:00 +26°C° 0 mm 3 mps 758 mmHg 43%
    17:00 +25°C° 0 mm 3 mps 758 mmHg 48%
    18:00 +23°C° 0 mm 2 mps 759 mmHg 52%
    19:00 +23°C° 0 mm 2 mps 759 mmHg 55%
    20:00 +21°C° 0 mm 2 mps 759 mmHg 57%
    21:00 +20°C° 0 mm 3 mps 760 mmHg 59%
    22:00 +20°C° 0 mm 3 mps 760 mmHg 61%
    23:00 +19°C° 0 mm 3 mps 760 mmHg 62%

    22 December, Saturday

    Time Temperature Precipitation Wind Pressure Humidity
    00:00 +19°C° 0 mm 3 mps 759 mmHg 64%
    01:00 +18°C° 0 mm 3 mps 759 mmHg 65%
    02:00 +18°C° 0 mm 3 mps 759 mmHg 67%
    03:00 +18°C° 0 mm 3 mps 759 mmHg 68%
    04:00 +17°C° 0 mm 3 mps 759 mmHg 70%
    05:00 +17°C° 0 mm 3 mps 759 mmHg 73%
    06:00 +17°C° 0 mm 3 mps 759 mmHg 75%
    07:00 +19°C° 0 mm 3 mps 760 mmHg 71%
    08:00 +20°C° 0 mm 3 mps 761 mmHg 68%
    09:00 +22°C° 0 mm 4 mps 762 mmHg 64%
    10:00 +23°C° 0 mm 4 mps 761 mmHg 57%
    11:00 +26°C° 0 mm 4 mps 761 mmHg 50%
    12:00 +27°C° 0 mm 4 mps 761 mmHg 43%
    13:00 +28°C° 0 mm 3 mps 760 mmHg 41%
    14:00 +28°C° 0 mm 3 mps 759 mmHg 39%
    15:00 +28°C° 0 mm 3 mps 759 mmHg 37%
    16:00 +27°C° 0 mm 3 mps 759 mmHg 42%
    17:00 +25°C° 0 mm 3 mps 759 mmHg 46%
    18:00 +22°C° 0 mm 3 mps 759 mmHg 50%
    19:00 +22°C° 0 mm 3 mps 760 mmHg 52%
    20:00 +21°C° 0 mm 3 mps 760 mmHg 55%
    21:00 +20°C° 0 mm 3 mps 761 mmHg 57%
    22:00 +20°C° 0 mm 3 mps 760 mmHg 59%
    23:00 +19°C° 0 mm 3 mps 760 mmHg 60%

    23 December, Sunday

    Time Temperature Precipitation Wind Pressure Humidity
    00:00 +19°C° 0 mm 3 mps 760 mmHg 62%
    01:00 +19°C° 0 mm 3 mps 760 mmHg 64%
    02:00 +18°C° 0 mm 3 mps 760 mmHg 66%
    03:00 +18°C° 0 mm 3 mps 759 mmHg 68%
    04:00 +17°C° 0 mm 3 mps 759 mmHg 71%
    05:00 +17°C° 0 mm 3 mps 760 mmHg 74%
    06:00 +17°C° 0 mm 3 mps 760 mmHg 77%
    07:00 +18°C° 0 mm 3 mps 761 mmHg 72%
    08:00 +20°C° 0 mm 4 mps 761 mmHg 67%
    09:00 +21°C° 0 mm 4 mps 762 mmHg 62%
    10:00 +24°C° 0 mm 3 mps 761 mmHg 54%
    11:00 +26°C° 0 mm 3 mps 761 mmHg 46%
    12:00 +27°C° 0 mm 3 mps 760 mmHg 38%
    13:00 +28°C° 0 mm 3 mps 760 mmHg 36%
    14:00 +28°C° 0 mm 3 mps 759 mmHg 34%
    15:00 +29°C° 0 mm 3 mps 759 mmHg 31%
    16:00 +27°C° 0 mm 3 mps 759 mmHg 35%
    17:00 +25°C° 0 mm 3 mps 759 mmHg 39%
    18:00 +23°C° 0 mm 2 mps 759 mmHg 43%
    19:00 +22°C° 0 mm 3 mps 759 mmHg 45%
    20:00 +21°C° 0 mm 3 mps 760 mmHg 47%
    21:00 +20°C° 0 mm 3 mps 760 mmHg 49%
    22:00 +20°C° 0 mm 3 mps 760 mmHg 51%
    23:00 +19°C° 0 mm 3 mps 760 mmHg 52%

    24 December, Monday

    Time Temperature Precipitation Wind Pressure Humidity
    00:00 +19°C° 0 mm 3 mps 759 mmHg 54%
    01:00 +18°C° 0 mm 3 mps 759 mmHg 56%
    02:00 +18°C° 0 mm 3 mps 759 mmHg 59%
    03:00 +17°C° 0 mm 3 mps 759 mmHg 61%
    04:00 +17°C° 0 mm 3 mps 759 mmHg 63%
    05:00 +17°C° 0 mm 3 mps 759 mmHg 65%
    06:00 +16°C° 0 mm 3 mps 759 mmHg 67%
    07:00 +18°C° 0 mm 3 mps 760 mmHg 62%
    08:00 +20°C° 0 mm 3 mps 761 mmHg 58%
    09:00 +21°C° 0 mm 3 mps 761 mmHg 53%
    10:00 +24°C° 0 mm 3 mps 761 mmHg 47%
    11:00 +26°C° 0 mm 3 mps 760 mmHg 41%
    12:00 +27°C° 0 mm 2 mps 760 mmHg 35%
    13:00 +28°C° 0 mm 3 mps 759 mmHg 33%
    14:00 +28°C° 0 mm 3 mps 759 mmHg 31%
    15:00 +29°C° 0 mm 3 mps 758 mmHg 29%
    16:00 +27°C° 0 mm 2 mps 758 mmHg 33%
    17:00 +25°C° 0 mm 2 mps 758 mmHg 37%
    18:00 +23°C° 0 mm 2 mps 758 mmHg 41%
    19:00 +21°C° 0 mm 2 mps 759 mmHg 43%
    20:00 +21°C° 0 mm 3 mps 759 mmHg 45%
    21:00 +20°C° 0 mm 3 mps 759 mmHg 46%
    22:00 +19°C° 0 mm 3 mps 759 mmHg 48%
    23:00 +19°C° 0 mm 3 mps 759 mmHg 50%
    Show more